Weather observations for the past three days for
Guam International Airport
Imperial (Metric)
Date Time (chst) Wind (mph) Vis. (mi.) Weather Sky Cond. Temperature (ºF) Relative Humidity Wind Chill (°F) Heat Index (°F) Pressure Precipitation (in)
Air Dwpt 6 hour altimeter (in) sea level (mb) 1 hr 3 hr 6 hr
Max. Min.
21 10:54 NE 10 10.00 Partly Cloudy SCT022 SCT028 87.1 78.1 75% 100 29.87 1010.8
21 09:54 E 8 10.00 Partly Cloudy FEW033 SCT045 84.9 78.1 84.9 79 80% 97 29.89 1011.4 0.1
21 08:54 NE 6 10.00 Partly Cloudy SCT025 SCT060 82 78.1 88% 91 29.9 1011.8 0.1
21 07:54 NE 8 10.00 Overcast SCT036 OVC060 84 78.1 82% 95 29.89 1011.4
21 06:54 NE 6 10.00 Partly Cloudy SCT065 82 77 85% 90 29.89 1011.3
21 05:54 NE 5 10.00 A Few Clouds FEW025 79 77 94% 83 29.87 1010.7
21 04:54 NE 6 10.00 Fair CLR 81 77 88% 88 29.86 1010.4
21 03:54 E 6 10.00 Mostly Cloudy FEW036 BKN047 81 77 82 78.1 88% 88 29.87 1010.5
21 02:54 Calm 10.00 Fair CLR 78.1 75 90% 81 29.87 1010.7
21 01:54 E 7 10.00 Fair CLR 82 75.9 82% 89 29.88 1010.9
21 00:54 E 6 10.00 Fair CLR 81 75.9 85% 87 29.9 1011.5
20 23:54 E 6 10.00 Fair CLR 81 75.9 85% 87 29.91 1011.9
20 22:54 E 6 10.00 Fair CLR 82 75.9 82% 89 29.92 1012.3
20 21:54 E 5 10.00 Fair CLR 82 75.9 87.1 82 82% 89 29.92 1012.4
20 20:54 E 6 10.00 Fair CLR 82 75.9 82% 89 29.92 1012.4
20 19:54 E 5 10.00 A Few Clouds FEW017 FEW023 82 77 85% 90 29.91 1012.1
20 18:54 E 6 10.00 A Few Clouds FEW043 82.9 77 82% 92 29.9 1011.7
20 17:54 SE 7 10.00 A Few Clouds FEW019 FEW027 84 77 80% 94 29.89 1011.3
20 16:54 E 9 10.00 A Few Clouds FEW021 84.9 75.9 75% 94 29.89 1011.2
20 15:54 E 13 10.00 A Few Clouds FEW023 87.1 75.9 88 81 70% 98 29.87 1010.6 0.05
20 14:54 E 12 G 21 10.00 Partly Cloudy FEW020 SCT025 SCT032 87.1 78.1 75% 100 29.87 1010.7
20 13:54 E 13 10.00 Partly Cloudy FEW022 FEW035 SCT048 87.1 77 72% 99 29.88 1011.0
20 12:54 E 16 G 22 10.00 Partly Cloudy SCT022 86 77 75% 97 29.89 0.0 0.05
20 11:54 E 14 G 23 10.00 Partly Cloudy FEW020 SCT033 SCT042 86 79 80% 100 29.9 1011.7 0.05
20 11:16 E 10 G 20 8.00 Light Rain SCT019 BKN037 OVC060 82 77 85% 90 29.91 0.0
20 11:08 SE 10 G 22 9.00 Light Rain BKN019 BKN031 OVC055 82 78.1 88% 91 29.91 0.0
20 10:54 E 15 G 21 9.00 Mostly Cloudy SCT021 BKN032 BKN041 84.9 77 77% 95 29.91 1012.1
20 10:42 E 14 10.00 Partly Cloudy SCT021 87.1 78.1 75% 100 29.91 0.0
20 09:54 E 12 10.00 Mostly Cloudy SCT021 BKN028 84 77 86 80.1 80% 94 29.92 1012.2 0.1
20 08:54 E 13 10.00 Partly Cloudy FEW020 SCT026 84 78.1 82% 95 29.91 1012.1
20 07:54 E 10 10.00 Partly Cloudy FEW020 SCT026 82.9 77 82% 92 29.91 1011.9
20 06:54 E 8 10.00 Mostly Cloudy FEW014 SCT026 BKN050 82 77 85% 90 29.9 1011.6 0.1
20 05:54 E 7 10.00 A Few Clouds FEW018 81 78.1 91% 89 29.89 1011.3 0.1
20 04:54 E 6 4.00 Heavy Rain Fog/Mist FEW015 SCT022 SCT028 80.1 78.1 94% 86 29.88 1011.2
20 03:54 E 8 10.00 A Few Clouds FEW015 81 77 88% 88 29.88 1010.8 0.19
20 02:54 SE 6 10.00 Fair CLR 79 78.1 97% 83 29.88 1011.0
20 01:54 SE 3 18.00 A Few Clouds FEW044 79 78.1 97% 83 29.89 1011.5 0.09
20 01:07 SE 10 G 26 4.00 Light Rain Fog/Mist FEW009 BKN031 BKN110 79 78.1 97% 83 29.92 0.0 0.05
20 00:54 E 13 G 21 10.00 Mostly Cloudy FEW010 SCT016 BKN110 78.8 78.8 100% 83 29.92 0.0 0.02 0.1
20 00:12 E 10 10.00 Light Rain FEW010 SCT023 OVC038 79 77 94% 83 29.93 0.0 0.02
20 00:05 E 7 G 18 4.00 Light Rain Fog/Mist SCT010 BKN025 OVC040 79 77 94% 83 29.93 0.0 0.02
19 23:54 E 12 10.00 Overcast SCT011 BKN030 OVC046 79 77 94% 83 29.94 1012.9 0.02
19 21:54 E 10 G 20 5.00 Rain Fog/Mist FEW021 SCT034 BKN044 78.1 75 87.1 78.1 90% 81 29.94 1013.0 0.02 0.02
19 20:54 SE 7 10.00 A Few Clouds FEW023 82.9 78.1 85% 93 29.92 1012.5
19 19:54 SE 6 10.00 Fair CLR 82.9 77 82% 92 29.91 1012.0
19 18:54 SE 7 10.00 Partly Cloudy FEW016 SCT024 82.9 75.9 79% 91 29.88 1011.1
19 17:54 SE 10 10.00 A Few Clouds FEW019 84 77 80% 94 29.86 1010.4
19 16:54 SE 10 10.00 Partly Cloudy SCT022 86 77 75% 97 29.85 1009.8
19 15:54 SE 13 G 22 10.00 Partly Cloudy SCT019 SCT025 87.1 78.1 88 84 75% 100 29.84 1009.7
19 14:54 E 16 G 25 10.00 Partly Cloudy FEW017 SCT022 SCT028 86 77 75% 97 29.85 1010.0
19 13:54 E 17 G 25 10.00 Partly Cloudy SCT018 86 78.1 77% 98 29.87 1010.7
19 13:41 E 15 G 24 10.00 Mostly Cloudy BKN019 87.1 78.1 75% 100 29.87 0.0
19 13:25 SE 14 G 26 10.00 Mostly Cloudy BKN019 87.1 78.1 75% 100 29.88 0.0
19 12:54 SE 13 G 25 10.00 A Few Clouds FEW019 87.1 78.1 75% 100 29.88 1010.9
19 12:52 SE 12 G 25 10.00 Partly Cloudy SCT019 87.8 78.8 75% 102 29.88 0.0
19 12:27 SE 14 G 29 10.00 Mostly Cloudy BKN019 BKN024 87.1 78.1 75% 100 29.89 0.0
19 11:54 SE 13 G 24 10.00 Partly Cloudy FEW017 SCT023 84.9 78.1 80% 97 29.89 1011.4
19 11:52 SE 14 G 26 10.00 Partly Cloudy SCT017 84.2 78.8 84% 96 29.89 0.0
19 11:13 SE 14 G 22 10.00 Mostly Cloudy BKN019 BKN028 84 78.1 82% 95 29.9 0.0
19 10:54 SE 13 G 26 10.00 A Few Clouds FEW021 84.9 77 77% 95 29.91 1011.9
19 09:54 SE 12 G 29 10.00 A Few Clouds FEW020 FEW027 84.9 77 86 79 77% 95 29.91 1012.0
19 09:20 E 18 G 28 10.00 Partly Cloudy FEW021 SCT029 SCT039 86 77 75% 97 29.92 0.0
19 09:01 E 17 G 33 10.00 Mostly Cloudy SCT022 BKN026 BKN038 86 78.8 79% 99 29.92 0.0
19 08:54 E 17 G 30 10.00 Mostly Cloudy SCT022 BKN032 86 78.1 77% 98 29.92 1012.2
19 07:54 E 12 G 21 10.00 Partly Cloudy FEW026 SCT050 82.9 75 77% 90 29.92 1012.2
19 06:54 E 14 G 21 10.00 Partly Cloudy FEW022 SCT029 82 77 85% 90 29.91 1011.9
19 05:54 E 13 G 23 10.00 A Few Clouds FEW021 82 75.9 82% 89 29.89 1011.4
19 04:54 E 13 G 20 10.00 A Few Clouds FEW021 FEW028 81 77 88% 88 29.88 1011.1
19 04:09 SE 8 10.00 Partly Cloudy FEW017 SCT026 SCT037 80.6 78.8 94% 88 29.88 0.0
19 03:54 E 12 G 25 3.00 Light Rain Fog/Mist SCT017 BKN028 BKN090 79 75.9 82.9 79 90% 83 29.88 1010.9 0.23 0.23
19 03:47 E 17 G 30 1.75 Heavy Rain Fog/Mist SCT015 BKN026 OVC039 78.8 75.2 89% 82 29.88 0.0
19 03:40 E 13 G 24 8.00 Overcast BKN017 BKN029 OVC050 80.6 78.8 94% 88 29.88 0.0
19 03:06 E 10 G 23 10.00 Partly Cloudy FEW020 SCT024 82 77 85% 90 29.87 0.0
19 02:54 E 9 10.00 Mostly Cloudy BKN020 BKN027 82 77 85% 90 29.87 1010.8
19 02:30 E 12 G 20 10.00 Mostly Cloudy SCT021 BKN029 82 75.9 82% 89 29.88 0.0
19 01:54 E 12 G 21 10.00 A Few Clouds FEW019 FEW024 82 75.9 82% 89 29.88 1011.1
19 00:54 E 12 10.00 Mostly Cloudy FEW019 SCT025 BKN041 82.9 77 82% 92 29.9 1011.6
19 00:40 E 9 10.00 Mostly Cloudy FEW022 SCT032 BKN041 82 77 85% 90 29.9 0.0
19 00:32 E 10 10.00 Mostly Cloudy FEW019 SCT024 BKN028 82.9 77 82% 92 29.91 0.0
18 23:54 E 10 10.00 Partly Cloudy FEW014 SCT024 SCT034 82 78.1 88% 91 29.92 1012.2
18 22:54 E 13 10.00 Partly Cloudy FEW017 SCT023 82 77 85% 90 29.93 1012.7
18 21:54 E 8 10.00 Fair CLR 82 77 82.9 82 85% 90 29.92 1012.3
18 20:54 E 7 10.00 Fair CLR 82 75.9 82% 89 29.91 1012.1
18 19:54 E 12 10.00 Fair CLR 82 75 79% 89 29.9 1011.7
18 18:54 E 10 G 21 10.00 A Few Clouds FEW016 82 77 85% 90 29.87 1010.7
18 17:54 E 10 G 20 10.00 Partly Cloudy FEW018 SCT023 82.9 77 82% 92 29.85 1010.0
18 16:54 E 13 G 21 10.00 Partly Cloudy SCT033 SCT060 82.9 78.1 85% 93 29.84 1009.5
18 15:54 E 13 10.00 Partly Cloudy FEW040 SCT080 82 77 82 75.9 85% 90 29.84 1009.5 0.17
18 14:54 E 8 10.00 A Few Clouds FEW110 81 77 88% 88 29.84 1009.7
18 13:54 E 10 10.00 Fair CLR 81 77 88% 88 29.87 1010.7
18 12:54 SE 8 10.00 A Few Clouds FEW032 80.1 75.9 87% 85 29.89 1011.4 0.17
18 12:36 E 8 10.00 Partly Cloudy SCT011 80.1 77 90% 86 29.89 0.0
Date Time (chst) Wind (mph) Vis. (mi.) Weather Sky Cond. Air Dwpt Max. Min. Relative Humidity Wind Chill (°F) Heat Index (°F) altimeter (in) sea level (mb) 1 hr 3 hr 6 hr
6 hour
Temperature (ºF) Pressure Precipitation (in)